"startDT [UTC]","vpos","CH4 [ppm]","stdev(CH4) [ppm]","CO2 [ppm]","stdev(CO2) [ppm]","H2O_reported [%]","stdev(H2O_reported)","CavityPressure [torr]","CavityTemp [C]","OutletValve","CH4_dry [ppm]","CO2_dry [ppm]","DasTemp [C]","EtalonTemp [C]","WarmBoxTemp [C]","MPVPosition","T_ECpre [C]","T_EC1 [C]","T_EC2 [C]","p_inlet [hPa]","p_in [hPa]","p_out [hPa]","T_inlet [C]","RH_inlet [%]","dwpt_inlet [C]","T_vent [C]","RH_vent [%]","dwpt_vent [C]","flow_vent [l min-1]","flow_inlet [l min-1]","dwpt_sample [C]","T_room [C]"
2015-03-06 00:00:00,0.0,1.95304,0.00043,406.572,0.035,0.0202,0.0012,139.999,45.000,34191.47111,1.95343,406.671,30.971,45.069,45.000,0.00,0.09,-272.71,-272.77,-1,971,1,18.1,0.7,-42.8,18.4,0.7,-41.6,5.73,2.03,-24.2,24.5
2015-03-06 00:01:00,0.0,1.95354,0.00037,406.585,0.030,0.0190,0.0014,140.000,45.000,34191.83840,1.95386,406.676,30.950,45.069,45.000,0.00,0.09,-272.71,-272.76,-0,971,1,18.1,0.7,-42.8,18.4,0.7,-41.7,5.73,2.13,-24.2,24.4
2015-03-06 00:02:00,0.0,1.95352,0.00038,406.575,0.031,0.0197,0.0018,139.997,45.000,34189.75921,1.95393,406.673,30.956,45.069,45.000,0.00,0.09,-272.71,-272.76,-0,971,1,18.1,0.6,-43.2,18.4,0.7,-41.9,5.73,2.00,-24.2,24.4
2015-03-06 00:03:00,0.0,1.95273,0.00029,406.547,0.031,0.0183,0.0015,140.000,45.000,34194.19010,1.95310,406.637,30.965,45.069,45.000,0.00,0.09,-272.70,-272.77,-1,971,1,18.1,0.6,-43.4,18.4,0.7,-42.1,5.73,1.96,-24.2,24.4
2015-03-06 00:04:00,0.0,1.95293,0.00040,406.557,0.028,0.0185,0.0015,140.001,45.000,34193.56659,1.95328,406.648,30.994,45.069,45.000,0.00,0.08,-272.71,-272.77,-0,971,1,18.1,0.6,-43.6,18.4,0.7,-42.5,5.73,2.11,-24.2,24.4
2015-03-06 00:05:00,0.0,1.95273,0.00035,406.531,0.040,0.0176,0.0016,140.001,45.000,34193.99374,1.95309,406.618,30.994,45.069,45.000,0.00,0.09,-272.71,-272.75,-1,971,1,18.1,0.6,-44.0,18.5,0.7,-42.7,5.73,2.10,-24.2,24.5
2015-03-06 00:06:00,0.0,1.95304,0.00039,406.563,0.039,0.0179,0.0020,140.002,45.000,34192.50443,1.95338,406.650,30.966,45.069,45.000,0.00,0.09,-272.70,-272.75,-1,971,1,18.1,0.6,-44.0,18.4,0.7,-42.7,5.73,1.95,-24.2,24.5
2015-03-06 00:07:00,0.0,1.95314,0.00039,406.595,0.056,0.0176,0.0018,139.998,45.000,34192.07153,1.95343,406.677,30.971,45.069,45.000,0.00,0.09,-272.71,-272.76,-0,971,1,18.1,0.6,-44.1,18.4,0.7,-42.7,5.73,2.02,-24.2,24.5
2015-03-06 00:08:00,0.0,1.95306,0.00029,406.585,0.041,0.0180,0.0017,140.000,45.000,34193.43093,1.95343,406.676,30.950,45.069,45.000,0.00,0.09,-272.70,-272.77,-0,971,1,18.1,0.6,-44.0,18.5,0.7,-42.7,5.73,2.13,-24.2,24.5
2015-03-06 00:09:00,0.0,1.95275,0.00040,406.542,0.041,0.0177,0.0014,140.000,45.000,34195.29073,1.95309,406.630,30.945,45.069,45.000,0.00,0.09,-272.70,-272.76,-1,971,1,18.1,0.6,-44.1,18.5,0.7,-42.7,5.73,2.02,-24.2,24.5
2015-03-06 00:10:00,0.0,1.95296,0.00019,406.555,0.028,0.0170,0.0014,139.999,45.000,34194.84747,1.95329,406.638,30.941,45.069,45.000,0.00,0.09,-272.71,-272.76,-0,971,1,18.1,0.6,-44.1,18.5,0.7,-42.7,5.73,1.95,-24.2,24.5
2015-03-06 00:11:00,0.0,1.95287,0.00040,406.558,0.039,0.0175,0.0018,139.997,45.000,34194.89186,1.95320,406.642,30.938,45.069,45.000,0.00,0.08,-272.71,-272.77,-1,971,1,18.1,0.6,-44.1,18.5,0.7,-42.7,5.73,2.10,-24.2,24.5
2015-03-06 00:12:00,0.0,1.95289,0.00054,406.560,0.027,0.0182,0.0021,139.999,45.000,34195.61417,1.95322,406.649,30.938,45.069,45.000,0.00,0.09,-272.70,-272.76,-1,971,1,18.1,0.6,-43.9,18.5,0.7,-42.7,5.73,2.12,-24.2,24.5
2015-03-06 00:13:00,0.0,1.95270,0.00034,406.551,0.038,0.0180,0.0021,140.001,45.000,34198.44155,1.95307,406.638,30.936,45.069,45.000,0.00,0.09,-272.70,-272.76,-0,971,1,18.1,0.6,-44.0,18.5,0.7,-42.6,5.73,1.97,-24.2,24.5
2015-03-06 00:14:00,0.0,1.95251,0.00032,406.522,0.034,0.0187,0.0018,139.998,45.000,34200.16266,1.95286,406.614,30.939,45.069,45.000,0.00,0.09,-272.71,-272.76,-1,971,1,18.1,0.6,-43.7,18.5,0.7,-42.7,5.73,2.00,-24.2,24.5
2015-03-06 00:15:00,0.0,1.95245,0.00037,406.526,0.021,0.0185,0.0013,140.001,45.000,34201.67532,1.95281,406.617,30.952,45.069,45.000,0.00,0.09,-272.71,-272.76,-1,971,1,18.1,0.6,-43.6,18.5,0.7,-42.5,5.73,2.13,-24.2,24.5
2015-03-06 00:16:00,0.0,1.95239,0.00038,406.521,0.033,0.0181,0.0018,139.999,45.000,34199.42553,1.95274,406.610,30.958,45.069,45.000,0.00,0.09,-272.70,-272.75,-0,971,1,18.1,0.6,-43.6,18.5,0.7,-42.3,5.73,2.04,-24.2,24.5
2015-03-06 00:17:00,0.0,1.95279,0.00029,406.540,0.031,0.0185,0.0013,140.000,45.000,34198.70686,1.95315,406.628,30.949,45.069,45.000,0.00,0.09,-272.71,-272.76,-1,971,1,18.1,0.6,-43.6,18.5,0.7,-42.3,5.73,1.94,-24.2,24.6
2015-03-06 00:18:00,0.0,1.95280,0.00035,406.540,0.032,0.0177,0.0017,139.999,45.000,34198.06583,1.95315,406.628,30.954,45.069,45.000,0.00,0.09,-272.71,-272.76,-1,971,1,18.1,0.6,-43.6,18.5,0.7,-42.3,5.73,2.07,-24.2,24.6
2015-03-06 00:19:00,0.0,1.95273,0.00027,406.543,0.027,0.0199,0.0023,140.000,45.000,34197.80808,1.95309,406.639,30.974,45.069,45.000,0.00,0.09,-272.70,-272.75,-0,971,1,18.1,0.6,-43.5,18.5,0.7,-42.2,5.73,2.13,-24.2,24.6
2015-03-06 00:20:00,0.0,1.95300,0.00047,406.543,0.024,0.0188,0.0021,140.003,45.000,34196.21242,1.95333,406.637,30.999,45.068,45.000,0.00,0.09,-272.71,-272.76,-1,972,1,18.1,0.6,-43.5,18.5,0.7,-42.3,5.73,1.98,-24.2,24.5
2015-03-06 00:21:00,0.0,1.95316,0.00045,406.529,0.032,0.0184,0.0014,139.998,45.000,34194.66949,1.95353,406.619,31.000,45.068,45.000,0.00,0.09,-272.70,-272.76,-1,971,1,18.1,0.6,-43.2,18.5,0.7,-42.3,5.73,1.98,-24.2,24.5
2015-03-06 00:22:00,0.0,1.95288,0.00039,406.522,0.029,0.0193,0.0012,140.000,45.000,34198.66484,1.95327,406.616,31.005,45.068,45.000,0.00,0.09,-272.71,-272.76,-0,971,1,18.1,0.6,-43.2,18.5,0.7,-41.9,5.73,2.12,-24.2,24.5
2015-03-06 00:23:00,0.0,1.95269,0.00044,406.534,0.033,0.0198,0.0013,139.999,45.000,34195.70153,1.95307,406.630,31.037,45.068,45.000,0.00,0.09,-272.71,-272.76,-1,971,1,18.2,0.6,-43.2,18.5,0.7,-41.9,5.73,2.08,-24.2,24.5
2015-03-06 00:24:00,0.0,1.95291,0.00029,406.512,0.030,0.0190,0.0021,140.001,45.000,34196.15870,1.95327,406.607,31.062,45.068,45.000,0.00,0.09,-272.71,-272.76,-1,971,1,18.2,0.7,-42.9,18.5,0.7,-41.9,5.73,1.95,-24.2,24.5
2015-03-06 00:25:00,0.0,1.95279,0.00033,406.516,0.028,0.0195,0.0019,140.001,45.000,34196.80437,1.95319,406.610,31.058,45.068,45.000,0.00,0.09,-272.71,-272.76,-0,971,1,18.2,0.7,-42.8,18.5,0.7,-41.8,5.73,2.02,-24.2,24.5
2015-03-06 00:26:00,0.0,1.95287,0.00043,406.514,0.038,0.0200,0.0018,140.003,45.000,34197.89335,1.95324,406.610,31.024,45.068,45.000,0.00,0.09,-272.71,-272.76,-1,972,1,18.2,0.7,-42.8,18.5,0.7,-41.6,5.73,2.13,-24.2,24.6
2015-03-06 00:27:00,0.0,1.95269,0.00034,406.510,0.050,0.0195,0.0023,140.000,45.000,34198.49060,1.95306,406.603,31.013,45.068,45.000,0.00,0.09,-272.71,-272.76,-1,971,1,18.2,0.7,-42.6,18.5,0.7,-41.6,5.73,2.03,-24.2,24.6
2015-03-06 00:28:00,0.0,1.95262,0.00027,406.523,0.040,0.0201,0.0017,139.997,45.000,34198.30377,1.95302,406.624,31.017,45.069,45.000,0.00,0.28,-271.23,-272.73,-0,971,1,18.2,0.7,-42.4,18.5,0.7,-41.4,5.43,2.13,-25.6,24.5
2015-03-06 00:29:00,0.0,1.95249,0.00045,406.626,0.086,0.0196,0.0013,139.998,45.000,34200.89936,1.95285,406.717,31.013,45.069,45.000,0.00,0.09,-272.71,-272.76,-1,971,1,18.2,0.7,-42.4,18.5,0.8,-41.3,5.73,2.07,-24.2,24.6
2015-03-06 00:30:00,0.0,1.95286,0.00035,406.628,0.084,0.0193,0.0012,139.999,45.000,34199.03384,1.95321,406.723,31.005,45.069,45.000,0.00,0.09,-272.71,-272.76,-1,971,1,18.2,0.7,-42.7,18.5,0.7,-41.6,5.73,2.12,-24.2,24.6
2015-03-06 00:31:00,0.0,1.95280,0.00035,406.532,0.034,0.0189,0.0021,140.000,45.000,34200.13226,1.95316,406.627,31.011,45.069,45.000,0.00,0.09,-272.71,-272.76,-0,971,1,18.2,0.7,-42.9,18.5,0.7,-41.9,5.73,1.99,-24.2,24.6
2015-03-06 00:32:00,0.0,1.95311,0.00025,406.511,0.023,0.0192,0.0020,139.999,45.000,34200.07146,1.95349,406.604,31.021,45.069,45.000,0.00,0.09,-272.70,-272.76,-1,972,1,18.2,0.6,-43.2,18.5,0.7,-41.9,5.73,1.97,-24.2,24.5
2015-03-06 00:33:00,0.0,1.95315,0.00041,406.527,0.041,0.0183,0.0012,140.000,45.000,34200.35083,1.95350,406.615,31.026,45.069,45.000,0.00,0.09,-272.70,-272.76,-1,971,1,18.2,0.6,-43.6,18.5,0.7,-42.3,5.73,2.12,-24.2,24.6
2015-03-06 00:34:00,0.0,1.95298,0.00036,406.519,0.035,0.0181,0.0017,140.003,45.000,34202.81302,1.95332,406.609,31.039,45.069,45.000,0.00,0.08,-272.71,-272.76,-0,971,1,18.2,0.6,-43.7,18.5,0.7,-42.4,5.73,2.10,-24.2,24.6
2015-03-06 00:35:00,0.0,1.95300,0.00036,406.509,0.030,0.0181,0.0013,140.000,45.000,34201.76921,1.95335,406.598,31.020,45.069,45.000,0.00,0.09,-272.71,-272.76,-1,972,1,18.2,0.6,-43.6,18.5,0.7,-42.6,5.73,1.96,-24.2,24.6
2015-03-06 00:36:00,0.0,1.95283,0.00038,406.521,0.027,0.0183,0.0016,140.000,45.000,34202.90735,1.95320,406.610,31.000,45.069,45.000,0.00,0.09,-272.70,-272.76,-1,971,1,18.2,0.6,-43.5,18.5,0.7,-42.7,5.73,2.01,-24.2,24.6
2015-03-06 00:37:00,0.0,1.95259,0.00033,406.506,0.027,0.0181,0.0017,140.000,45.000,34203.25187,1.95294,406.595,31.000,45.069,45.000,0.00,0.09,-272.70,-272.76,-0,971,1,18.2,0.6,-43.6,18.6,0.7,-42.7,5.73,2.13,-24.2,24.6
2015-03-06 00:38:00,0.0,1.95271,0.00032,406.512,0.029,0.0183,0.0016,139.998,45.000,34200.76588,1.95306,406.602,31.000,45.069,45.000,0.00,0.09,-272.70,-272.76,-1,972,1,18.2,0.6,-43.5,18.6,0.7,-42.4,5.73,2.04,-24.2,24.6
2015-03-06 00:39:00,0.0,1.95271,0.00038,406.524,0.036,0.0178,0.0020,140.000,45.000,34201.06703,1.95303,406.608,31.006,45.069,45.000,0.00,0.09,-272.70,-272.76,-1,971,1,18.2,0.6,-43.6,18.6,0.7,-42.3,5.73,1.94,-24.2,24.6
2015-03-06 00:40:00,0.0,1.95269,0.00038,406.561,0.025,0.0190,0.0015,139.998,45.000,34199.88607,1.95307,406.654,31.034,45.069,45.000,0.00,0.09,-272.70,-272.76,-0,971,1,18.2,0.6,-43.6,18.6,0.7,-42.3,5.73,2.06,-24.2,24.6
2015-03-06 00:41:00,0.0,1.95252,0.00039,406.554,0.037,0.0193,0.0018,140.000,45.000,34201.14213,1.95290,406.648,31.032,45.069,45.000,0.00,0.08,-272.71,-272.76,-1,972,1,18.2,0.6,-43.5,18.6,0.7,-42.3,5.73,2.13,-24.2,24.6
2015-03-06 00:42:00,0.0,1.95247,0.00029,406.562,0.035,0.0180,0.0022,140.002,45.000,34203.41445,1.95281,406.651,31.016,45.068,45.000,0.00,0.09,-272.71,-272.75,-1,971,1,18.2,0.6,-43.5,18.6,0.7,-42.2,5.73,2.00,-24.2,24.5
2015-03-06 00:43:00,0.0,1.95242,0.00036,406.520,0.036,0.0187,0.0023,139.997,45.000,34202.26447,1.95279,406.609,31.022,45.068,45.000,0.00,0.09,-272.71,-272.76,-0,971,1,18.2,0.6,-43.5,18.6,0.7,-42.2,5.73,1.96,-24.2,24.5
2015-03-06 00:44:00,0.0,1.95223,0.00027,406.528,0.033,0.0186,0.0018,140.000,45.000,34204.34609,1.95261,406.620,31.043,45.068,45.000,0.00,0.09,-272.71,-272.76,-1,972,1,18.2,0.6,-43.6,18.6,0.7,-42.3,5.73,2.10,-24.2,24.5
2015-03-06 00:45:00,0.0,1.95225,0.00025,406.539,0.051,0.0188,0.0015,140.000,45.000,34204.49878,1.95259,406.632,31.049,45.069,45.000,0.00,0.09,-272.70,-272.76,-1,971,1,18.2,0.6,-43.5,18.6,0.7,-42.2,5.73,2.11,-24.2,24.6
2015-03-06 00:46:00,0.0,1.95247,0.00050,406.555,0.035,0.0191,0.0024,139.999,45.000,34202.89283,1.95286,406.646,31.048,45.069,45.000,0.00,0.09,-272.70,-272.76,-1,971,1,18.2,0.6,-43.4,18.6,0.7,-42.2,5.73,1.97,-24.2,24.6
2015-03-06 00:47:00,0.0,1.95236,0.00033,406.546,0.030,0.0191,0.0018,139.998,45.000,34202.43806,1.95271,406.638,31.035,45.069,45.000,0.00,0.09,-272.70,-272.76,-1,972,1,18.2,0.6,-43.2,18.6,0.7,-42.1,5.73,1.99,-24.2,24.6
2015-03-06 00:48:00,0.0,1.95221,0.00053,406.629,0.086,0.0192,0.0027,139.999,45.000,34205.07144,1.95260,406.717,31.051,45.069,45.000,0.00,0.08,-272.71,-272.77,-1,972,1,18.2,0.7,-42.9,18.6,0.7,-41.8,5.73,2.13,-24.2,24.6
2015-03-06 00:49:00,0.0,1.95229,0.00043,407.097,0.478,0.0199,0.0021,140.002,45.000,34206.28579,1.95265,407.170,31.063,45.069,45.000,0.00,0.09,-272.70,-272.75,-1,971,1,18.2,0.7,-42.7,18.6,0.7,-41.6,5.73,2.07,-24.2,24.6
2015-03-06 00:50:00,0.0,1.95250,0.00036,407.432,0.353,0.0202,0.0013,140.000,45.000,34203.31216,1.95291,407.553,31.065,45.069,45.000,0.00,0.09,-272.70,-272.76,-0,972,1,18.2,0.7,-42.8,18.6,0.7,-41.5,5.73,1.95,-24.2,24.6
2015-03-06 00:51:00,0.0,1.95236,0.00037,407.385,0.123,0.0200,0.0016,140.000,45.000,34203.98766,1.95272,407.471,31.072,45.069,45.000,0.00,0.09,-272.71,-272.77,-1,972,1,18.2,0.7,-42.8,18.6,0.7,-41.5,5.73,2.02,-24.2,24.6
2015-03-06 00:52:00,0.0,1.95236,0.00037,408.059,0.157,0.0205,0.0017,140.002,45.000,34205.89545,1.95273,408.147,31.064,45.069,45.000,0.00,0.09,-272.71,-272.75,-1,971,1,18.2,0.7,-42.8,18.6,0.7,-41.5,5.73,2.13,-24.2,24.6
2015-03-06 00:53:00,0.0,1.95254,0.00027,407.886,0.095,0.0196,0.0015,139.998,45.000,34202.84202,1.95294,407.990,31.065,45.068,45.000,0.00,0.09,-272.70,-272.76,-0,972,1,18.2,0.7,-42.7,18.6,0.7,-41.6,5.73,2.03,-24.2,24.6
2015-03-06 00:54:00,0.0,1.95263,0.00042,407.735,0.142,0.0204,0.0018,139.999,45.000,34202.67911,1.95300,407.840,31.065,45.068,45.000,0.00,0.09,-272.70,-272.76,-1,972,1,18.2,0.7,-42.8,18.6,0.7,-41.5,5.73,1.94,-24.2,24.7
2015-03-06 00:55:00,0.0,1.95277,0.00040,407.977,0.343,0.0201,0.0018,140.001,45.000,34203.28007,1.95318,408.070,31.073,45.069,45.000,0.00,0.09,-272.71,-272.76,-1,971,1,18.2,0.7,-42.8,18.6,0.7,-41.5,5.73,2.06,-24.2,24.6
2015-03-06 00:56:00,0.0,1.95242,0.00032,407.953,0.080,0.0202,0.0019,139.998,45.000,34203.01373,1.95279,408.051,31.067,45.069,45.000,0.00,0.09,-272.71,-272.75,-0,972,1,18.3,0.7,-42.4,18.6,0.7,-41.5,5.73,2.12,-24.2,24.6
2015-03-06 00:57:00,0.0,1.95262,0.00030,407.738,0.178,0.0203,0.0017,140.000,45.000,34202.41553,1.95303,407.831,31.067,45.069,45.000,0.00,0.09,-272.71,-272.76,-1,972,1,18.3,0.7,-42.4,18.6,0.8,-41.3,5.73,1.99,-24.2,24.6
2015-03-06 00:58:00,0.0,1.95263,0.00035,407.862,0.252,0.0202,0.0020,139.999,45.000,34203.96842,1.95300,407.972,31.070,45.069,45.000,0.00,0.09,-272.71,-272.76,-1,972,1,18.3,0.7,-42.3,18.6,0.8,-41.2,5.73,1.96,-24.2,24.6
2015-03-06 00:59:00,0.0,1.95287,0.00041,407.677,0.064,0.0208,0.0016,140.000,45.000,34203.68599,1.95326,407.780,31.098,45.069,45.000,0.00,0.09,-272.71,-272.76,-0,971,1,18.3,0.7,-42.0,18.6,0.8,-41.1,5.73,2.10,-24.2,24.6
2015-03-06 01:00:00,0.0,1.95327,0.00048,407.463,0.070,0.0201,0.0017,139.998,45.000,34204.62662,1.95364,407.566,31.120,45.068,45.000,0.00,0.09,-272.70,-272.76,-1,972,1,18.3,0.7,-42.0,18.6,0.8,-40.9,5.73,2.11,-24.1,24.6
2015-03-06 01:01:00,0.0,1.95311,0.00039,407.379,0.027,0.0218,0.0026,140.001,45.000,34205.99459,1.95356,407.486,31.125,45.068,45.000,0.00,0.09,-272.70,-272.76,-1,971,1,18.3,0.7,-42.0,18.6,0.8,-40.8,5.73,1.97,-24.2,24.6
2015-03-06 01:02:00,0.0,1.95289,0.00039,407.351,0.029,0.0207,0.0012,140.001,45.000,34210.36182,1.95329,407.454,31.125,45.068,45.000,0.00,0.09,-272.70,-272.76,-0,972,1,18.3,0.7,-42.0,18.6,0.8,-40.8,5.73,1.99,-24.2,24.6
2015-03-06 01:03:00,0.0,1.95276,0.00032,407.300,0.049,0.0208,0.0017,139.996,45.000,34208.21962,1.95316,407.403,31.124,45.068,45.000,0.00,0.09,-272.70,-272.76,-1,971,1,18.3,0.7,-42.0,18.6,0.8,-40.8,5.73,2.13,-24.2,24.6
2015-03-06 01:04:00,0.0,1.95299,0.00042,407.213,0.060,0.0211,0.0026,140.000,45.000,34209.23361,1.95334,407.317,31.125,45.068,45.000,0.00,0.09,-272.71,-272.76,-1,972,1,18.3,0.7,-42.1,18.6,0.8,-40.8,5.73,2.09,-24.2,24.6
2015-03-06 01:05:00,0.0,1.95293,0.00038,407.225,0.048,0.0210,0.0022,139.999,45.000,34209.49429,1.95339,407.327,31.124,45.068,45.000,0.00,0.09,-272.71,-272.76,-0,972,1,18.3,0.7,-41.9,18.6,0.8,-40.9,5.73,1.96,-24.2,24.6
2015-03-06 01:06:00,0.0,1.95261,0.00042,407.290,0.082,0.0204,0.0015,139.997,45.000,34208.96937,1.95299,407.386,31.124,45.069,45.000,0.00,0.09,-272.70,-272.76,-1,972,1,18.3,0.7,-42.0,18.6,0.8,-41.2,5.73,2.01,-24.2,24.6
2015-03-06 01:07:00,0.0,1.95266,0.00034,407.378,0.048,0.0212,0.0023,140.000,45.000,34207.54066,1.95307,407.482,31.123,45.069,45.000,0.00,0.09,-272.70,-272.76,-1,972,1,18.3,0.7,-42.3,18.6,0.8,-41.2,5.73,2.13,-24.1,24.6
2015-03-06 01:08:00,0.0,1.95247,0.00036,407.405,0.057,0.0208,0.0018,139.999,45.000,34208.18362,1.95288,407.510,31.125,45.069,45.000,0.00,0.08,-272.71,-272.76,-0,971,1,18.3,0.7,-42.4,18.6,0.8,-41.2,5.73,2.07,-24.2,24.7
2015-03-06 01:09:00,0.0,1.95233,0.00035,407.335,0.039,0.0209,0.0018,140.000,45.000,34209.77740,1.95273,407.437,31.125,45.069,45.000,0.00,0.09,-272.70,-272.76,-1,972,1,18.3,0.7,-42.2,18.6,0.8,-41.1,5.73,1.95,-24.1,24.7
2015-03-06 01:10:00,0.0,1.95254,0.00029,407.348,0.040,0.0202,0.0018,139.998,45.000,34208.10721,1.95291,407.445,31.125,45.069,45.000,0.00,0.09,-272.71,-272.75,-1,971,1,18.3,0.7,-41.9,18.7,0.8,-41.2,5.73,2.02,-24.1,24.7
2015-03-06 01:11:00,0.0,1.95248,0.00035,407.292,0.042,0.0213,0.0021,140.000,45.000,34208.51323,1.95291,407.397,31.131,45.069,45.000,0.00,0.08,-272.71,-272.76,-1,971,1,18.3,0.7,-42.0,18.6,0.8,-41.2,5.73,2.13,-24.1,24.6
2015-03-06 01:12:00,0.0,1.95248,0.00029,407.270,0.038,0.0205,0.0015,140.000,45.000,34208.55358,1.95283,407.371,31.157,45.069,45.000,0.00,0.09,-272.71,-272.76,-1,972,1,18.3,0.7,-42.0,18.7,0.8,-41.0,5.73,2.05,-24.1,24.7
2015-03-06 01:13:00,0.0,1.95238,0.00037,407.256,0.037,0.0204,0.0015,139.997,45.000,34210.36537,1.95279,407.357,31.171,45.069,45.000,0.00,0.09,-272.70,-272.76,-1,972,1,18.3,0.7,-41.9,18.7,0.8,-40.9,5.73,1.95,-24.1,24.7
2015-03-06 01:14:00,0.0,1.95271,0.00026,407.267,0.031,0.0211,0.0014,140.001,45.000,34209.32579,1.95311,407.371,31.175,45.069,45.000,0.00,0.09,-272.70,-272.76,-1,971,1,18.3,0.7,-42.1,18.7,0.8,-41.1,5.73,2.04,-24.1,24.7
2015-03-06 01:15:00,0.0,1.95238,0.00043,407.269,0.037,0.0203,0.0018,139.999,45.000,34210.36768,1.95279,407.369,31.168,45.068,45.000,0.00,0.08,-272.70,-272.76,-0,972,1,18.3,0.7,-42.3,18.7,0.8,-41.2,5.73,2.13,-24.1,24.7
2015-03-06 01:16:00,0.0,1.95236,0.00039,407.339,0.039,0.0205,0.0024,139.998,45.000,34209.39488,1.95275,407.437,31.171,45.069,45.000,0.00,0.09,-272.70,-272.76,-1,972,1,18.3,0.7,-42.4,18.7,0.7,-41.4,5.73,2.03,-24.1,24.7
2015-03-06 01:17:00,0.0,1.95256,0.00036,407.170,0.111,0.0198,0.0013,139.997,45.000,34211.78283,1.95295,407.271,31.140,45.069,45.000,0.00,0.09,-272.70,-272.76,-1,971,1,18.3,0.7,-42.7,18.7,0.7,-41.5,5.73,1.95,-24.1,24.7
2015-03-06 01:18:00,0.0,1.95249,0.00032,407.022,0.025,0.0199,0.0014,140.000,45.000,34212.76348,1.95284,407.122,31.131,45.069,45.000,0.00,0.09,-272.71,-272.77,-1,972,1,18.3,0.7,-42.7,18.7,0.7,-41.5,5.73,2.06,-24.1,24.7
2015-03-06 01:19:00,0.0,1.95255,0.00031,407.051,0.045,0.0199,0.0015,140.000,45.000,34213.31415,1.95297,407.145,31.125,45.069,45.000,0.00,0.09,-272.71,-272.76,-1,972,1,18.4,0.7,-42.5,18.7,0.7,-41.5,5.73,2.13,-24.1,24.7
2015-03-06 01:20:00,0.0,1.95251,0.00039,407.231,0.088,0.0208,0.0019,139.998,45.000,34213.17233,1.95286,407.329,31.127,45.069,45.000,0.00,0.09,-272.70,-272.76,-1,971,1,18.4,0.7,-42.4,18.7,0.8,-41.2,5.73,2.02,-24.1,24.7
2015-03-06 01:21:00,0.0,1.95260,0.00035,407.234,0.048,0.0205,0.0015,140.001,45.000,34210.63540,1.95302,407.335,31.143,45.069,45.000,0.00,0.09,-272.71,-272.76,-1,972,1,18.4,0.7,-42.4,18.7,0.8,-41.2,5.73,1.95,-24.1,24.7
2015-03-06 01:22:00,0.0,1.95242,0.00032,407.245,0.033,0.0212,0.0026,139.999,45.000,34213.87811,1.95281,407.351,31.161,45.069,45.000,0.00,0.09,-272.71,-272.76,-1,972,1,18.4,0.7,-42.3,18.7,0.8,-41.3,5.73,2.07,-24.1,24.7
2015-03-06 01:23:00,0.0,1.95264,0.00042,407.211,0.059,0.0207,0.0019,140.001,45.000,34212.73781,1.95303,407.311,31.187,45.069,45.000,0.00,0.09,-272.70,-272.75,-1,972,1,18.4,0.7,-42.1,18.7,0.8,-41.1,5.73,2.13,-24.1,24.7
2015-03-06 01:24:00,0.0,1.95258,0.00027,407.190,0.069,0.0195,0.0016,140.001,45.000,34213.55786,1.95295,407.288,31.204,45.068,45.000,0.00,0.09,-272.71,-272.76,-0,972,1,18.4,0.7,-42.2,18.7,0.7,-41.4,5.73,2.00,-24.1,24.8
2015-03-06 01:25:00,0.0,1.95241,0.00036,407.083,0.098,0.0203,0.0012,140.001,45.000,34216.45350,1.95284,407.183,31.217,45.068,45.000,0.00,0.08,-272.71,-272.76,-1,972,1,18.4,0.7,-42.3,18.7,0.8,-41.2,5.73,1.96,-24.1,24.7
2015-03-06 01:26:00,0.0,1.95244,0.00036,407.153,0.032,0.0205,0.0019,140.000,45.000,34216.38099,1.95284,407.252,31.221,45.068,45.000,0.00,0.09,-272.70,-272.76,-1,972,1,18.4,0.7,-42.0,18.7,0.8,-40.9,5.73,2.08,-24.1,24.7
2015-03-06 01:27:00,0.0,1.95249,0.00038,407.137,0.035,0.0202,0.0027,140.000,45.000,34215.32287,1.95286,407.236,31.218,45.068,44.999,0.00,0.09,-272.70,-272.76,-1,972,1,18.4,0.7,-42.0,18.7,0.8,-41.0,5.73,2.12,-24.1,24.7
2015-03-06 01:28:00,0.0,1.95236,0.00038,407.247,0.055,0.0200,0.0018,140.003,45.000,34217.22634,1.95273,407.344,31.243,45.068,45.000,0.00,0.08,-272.71,-272.76,-1,972,1,18.4,0.7,-41.9,18.7,0.8,-41.1,5.73,1.99,-24.1,24.7
2015-03-06 01:29:00,0.0,1.95277,0.00044,407.109,0.073,0.0203,0.0018,139.998,45.000,34216.89336,1.95314,407.213,31.243,45.068,45.000,0.00,0.08,-272.70,-272.76,-1,972,1,18.4,0.7,-41.9,18.7,0.8,-41.1,5.73,1.96,-24.1,24.7
2015-03-06 01:30:00,0.0,1.95215,0.00037,407.215,0.095,0.0213,0.0020,140.001,45.000,34218.46373,1.95261,407.312,31.234,45.068,45.000,0.00,0.09,-272.70,-272.76,-1,972,1,18.4,0.7,-41.9,18.7,0.8,-40.9,5.73,2.08,-24.1,24.7
2015-03-06 01:31:00,0.0,1.95250,0.00026,407.274,0.028,0.0201,0.0017,140.000,45.000,34217.72523,1.95287,407.372,31.203,45.068,45.000,0.00,0.09,-272.71,-272.76,-1,972,1,18.4,0.7,-41.9,18.7,0.8,-40.8,5.73,2.12,-24.1,24.7
2015-03-06 01:32:00,0.0,1.95250,0.00026,407.239,0.071,0.0209,0.0019,140.002,45.000,34216.97915,1.95290,407.343,31.188,45.069,45.000,0.00,0.09,-272.71,-272.77,-1,972,1,18.4,0.7,-41.8,18.7,0.8,-40.7,5.73,2.00,-24.1,24.7
2015-03-06 01:33:00,0.0,1.95252,0.00042,407.138,0.096,0.0215,0.0011,140.000,45.000,34217.59035,1.95296,407.245,31.196,45.069,45.000,0.00,0.09,-272.70,-272.76,-1,972,1,18.4,0.7,-41.9,18.7,0.8,-40.7,5.73,1.96,-24.1,24.7
2015-03-06 01:34:00,0.0,1.95265,0.00040,407.074,0.054,0.0201,0.0018,140.003,45.000,34217.24752,1.95302,407.172,31.232,45.069,45.000,0.00,0.09,-272.70,-272.76,-0,972,1,18.4,0.7,-42.0,18.7,0.8,-40.8,5.73,2.08,-24.1,24.8
2015-03-06 01:35:00,0.0,1.95261,0.00032,407.043,0.048,0.0209,0.0016,140.001,45.000,34219.31020,1.95299,407.148,31.248,45.069,45.000,0.00,0.09,-272.71,-272.76,-1,972,1,18.4,0.7,-41.9,18.7,0.8,-40.7,5.73,2.12,-24.1,24.8
2015-03-06 01:36:00,0.0,1.95259,0.00052,406.891,0.095,0.0214,0.0017,140.001,45.000,34220.85933,1.95299,406.999,31.250,45.069,45.000,0.00,0.09,-272.70,-272.76,-1,972,1,18.4,0.7,-41.9,18.8,0.8,-40.7,5.73,2.00,-24.1,24.8
2015-03-06 01:37:00,0.0,1.95267,0.00040,406.699,0.055,0.0208,0.0018,140.000,45.000,34219.89913,1.95306,406.803,31.253,45.069,45.000,0.00,0.09,-272.70,-272.76,-1,972,1,18.4,0.7,-41.9,18.8,0.8,-40.8,5.73,1.96,-24.1,24.8
2015-03-06 01:38:00,0.0,1.95294,0.00037,406.667,0.030,0.0214,0.0019,139.999,45.000,34218.35581,1.95335,406.771,31.272,45.069,45.000,0.00,0.09,-272.72,-272.76,-1,972,1,18.4,0.7,-41.9,18.8,0.8,-40.7,5.73,2.08,-24.1,24.8
2015-03-06 01:39:00,0.0,1.95287,0.00043,406.633,0.040,0.0210,0.0016,140.002,45.000,34221.33613,1.95326,406.737,31.258,45.068,45.000,0.00,0.09,-272.71,-272.76,-1,972,1,18.4,0.7,-41.9,18.8,0.8,-40.7,5.73,2.12,-24.1,24.8
2015-03-06 01:40:00,0.0,1.95296,0.00043,406.607,0.054,0.0213,0.0015,140.001,45.000,34223.03601,1.95338,406.709,31.250,45.068,45.000,0.00,0.09,-272.70,-272.75,-1,972,1,18.5,0.7,-41.8,18.8,0.8,-40.7,5.73,2.01,-24.1,24.8
2015-03-06 01:41:00,0.0,1.95329,0.00033,406.773,0.023,0.0213,0.0017,139.999,45.000,34222.53534,1.95368,406.876,31.250,45.068,45.000,0.00,0.09,-272.70,-272.76,-1,972,1,18.5,0.7,-41.6,18.8,0.8,-40.7,5.73,1.96,-24.1,24.8
2015-03-06 01:42:00,0.0,1.95345,0.00052,406.702,0.127,0.0211,0.0016,140.000,45.000,34222.24412,1.95389,406.809,31.243,45.069,45.000,0.00,0.08,-272.71,-272.76,-1,972,1,18.5,0.7,-41.7,18.8,0.8,-40.7,5.73,2.07,-24.0,24.8
2015-03-06 01:43:00,0.0,1.95267,0.00034,406.461,0.038,0.0206,0.0019,140.003,45.000,34222.19460,1.95308,406.563,31.236,45.069,45.000,0.00,0.09,-272.70,-272.76,-1,972,1,18.4,0.7,-41.9,18.8,0.8,-40.7,5.73,2.12,-24.0,24.8
2015-03-06 01:44:00,0.0,1.95263,0.00035,406.453,0.035,0.0206,0.0015,140.001,45.000,34225.72348,1.95301,406.552,31.231,45.069,45.000,0.00,0.09,-272.70,-272.76,-1,972,0,18.5,0.7,-42.0,18.8,0.8,-40.8,5.73,2.01,-24.1,24.8
2015-03-06 01:45:00,0.0,1.95288,0.00061,406.503,0.053,0.0278,0.0062,140.002,45.000,34226.89541,1.95335,406.637,31.250,45.069,45.000,0.00,0.09,-272.71,-272.76,-1,972,0,18.5,0.9,-39.3,18.8,0.9,-39.1,5.73,1.95,-24.0,24.8
2015-03-06 01:46:00,0.0,1.95439,0.00062,406.651,0.061,0.0215,0.0021,140.002,45.000,34224.17544,1.95478,406.753,31.272,45.069,45.000,0.00,0.09,-272.71,-272.76,-1,972,0,18.5,0.8,-40.8,18.8,0.9,-39.5,5.73,2.05,-24.0,24.8